Total_Precipitation_Accumulation
2.52 2.80 2.73 2.53 2.66 2.79 3.07 3.33 3.53 3.26 2.97 2.72 2.36 2.12 2.15 2.34 2.58 2.30 2.27 2.24 1.99 1.93 1.86 1.75 1.70 1.77 1.90 2.11 2.29 2.48 2.79 3.02 3.25 3.51 3.74 4.03 4.35 4.72
2.60 2.80 2.73 2.60 2.74 2.80 3.02 3.34 3.71 3.74 3.16 2.56 2.38 2.20 2.36 2.35 2.56 2.23 2.14 2.22 2.01 1.83 1.74 1.71 1.66 1.69 1.72 1.86 2.05 2.22 2.37 2.53 2.74 2.92 3.11 3.32 3.51 3.85
2.45 2.61 2.66 2.82 2.91 2.90 3.04 3.21 3.53 3.82 3.40 2.72 2.56 2.53 2.68 2.63 2.50 2.22 1.98 1.90 1.74 1.73 1.59 1.54 1.53 1.62 1.70 1.73 1.88 2.05 2.11 2.22 2.44 2.62 2.80 3.00 3.09 3.26
2.48 2.64 2.52 2.76 2.96 2.92 3.04 3.03 3.18 3.58 3.44 3.06 2.94 2.86 2.85 2.70 2.66 2.46 2.09 1.89 1.83 1.86 1.64 1.54 1.52 1.53 1.65 1.64 1.73 1.90 2.03 2.12 2.20 2.27 2.35 2.51 2.71 2.91
2.50 2.52 2.49 2.73 2.74 2.89 3.02 2.97 2.97 3.12 3.36 3.20 3.07 3.15 3.05 2.91 2.88 2.65 2.41 2.37 1.99 1.91 1.84 1.74 1.72 1.73 1.76 1.76 1.75 1.81 1.94 2.07 2.17 2.29 2.38 2.45 2.52 2.63
2.51 2.46 2.41 2.47 2.54 2.70 2.78 2.90 2.99 3.12 3.27 3.25 3.24 3.34 3.27 3.28 3.35 3.09 2.87 2.76 2.38 1.97 2.03 1.91 1.85 1.76 1.69 1.66 1.66 1.72 1.85 2.07 2.25 2.29 2.35 2.43 2.49 2.50
2.54 2.45 2.31 2.33 2.42 2.49 2.38 2.56 2.78 2.91 2.92 3.01 3.09 3.32 3.34 3.43 3.39 3.25 3.10 3.08 2.85 2.32 2.18 2.05 2.00 1.86 1.84 1.86 1.79 1.75 1.76 1.87 2.11 2.30 2.34 2.41 2.49 2.50
2.59 2.55 2.38 2.25 2.21 2.14 2.04 2.09 2.26 2.41 2.57 2.85 2.97 3.13 3.29 3.45 3.69 3.70 3.53 3.32 3.09 2.77 2.69 2.52 2.27 2.18 2.00 1.84 1.89 1.75 1.60 1.61 1.70 1.86 2.04 2.21 2.39 2.56
2.45 2.45 2.16 1.97 2.09 1.96 1.99 1.99 2.01 2.15 2.29 2.59 2.75 2.81 3.07 3.31 3.65 3.72 3.74 3.64 3.40 3.22 3.11 2.90 2.58 2.35 2.10 1.98 2.01 1.75 1.59 1.50 1.48 1.53 1.62 1.80 1.98 2.20
2.22 2.26 2.21 2.15 2.16 2.24 2.14 1.97 1.86 1.97 2.14 2.09 2.09 2.26 2.56 3.03 3.29 3.32 3.51 3.53 3.36 3.16 3.11 2.99 2.68 2.45 2.20 2.12 2.13 1.84 1.68 1.64 1.59 1.48 1.43 1.52 1.68 1.84
2.08 2.09 2.09 2.02 2.18 2.13 2.01 1.94 1.93 1.99 1.97 1.95 1.89 1.93 2.09 2.37 2.78 2.97 3.07 3.04 2.85 2.57 2.51 2.54 2.41 2.41 2.32 2.19 2.01 1.91 1.70 1.55 1.47 1.47 1.44 1.43 1.53 1.69
2.11 2.05 1.98 1.88 1.93 1.90 1.84 1.95 1.91 1.94 2.04 1.97 1.81 1.70 1.65 1.86 2.30 2.47 2.60 2.70 2.52 2.37 2.09 2.11 2.06 2.20 2.24 1.99 1.83 1.81 1.76 1.75 1.64 1.50 1.43 1.42 1.56 1.53
2.05 2.01 1.91 1.94 1.74 1.70 1.68 1.67 1.72 1.80 1.94 1.96 1.89 1.81 1.81 1.82 1.95 2.17 2.39 2.52 2.48 2.21 2.07 2.14 2.09 2.15 2.16 2.00 1.85 1.77 1.79 1.88 1.87 1.81 1.76 1.76 1.81 1.73
1.97 1.91 1.92 1.87 1.69 1.65 1.58 1.55 1.63 1.58 1.55 1.67 1.69 1.65 1.67 1.70 1.81 2.01 2.23 2.37 2.41 2.23 2.20 2.33 2.30 2.24 2.21 2.02 1.80 1.66 1.68 1.83 1.99 2.09 2.07 2.15 2.13 2.20
1.87 1.93 1.88 1.76 1.55 1.38 1.40 1.43 1.37 1.30 1.41 1.53 1.55 1.48 1.48 1.54 1.65 1.83 2.00 2.23 2.22 2.10 2.04 2.22 2.32 2.30 2.27 2.06 1.82 1.68 1.67 1.67 1.78 2.00 2.23 2.35 2.31 2.35
1.94 1.93 1.80 1.68 1.47 1.34 1.37 1.33 1.26 1.32 1.44 1.47 1.51 1.50 1.49 1.52 1.55 1.66 1.82 2.01 2.08 1.96 1.96 2.08 2.24 2.45 2.37 2.16 2.09 1.88 1.81 1.77 1.68 1.86 2.19 2.45 2.63 2.68
2.19 2.02 1.84 1.74 1.60 1.50 1.49 1.53 1.58 1.62 1.56 1.54 1.62 1.69 1.68 1.58 1.55 1.62 1.85 1.96 1.94 1.86 1.90 1.99 2.13 2.37 2.40 2.30 2.24 2.03 1.98 1.88 1.79 1.94 2.20 2.31 2.45 2.64
2.09 1.93 1.88 1.82 1.74 1.72 1.74 1.74 1.73 1.74 1.70 1.73 1.75 1.79 1.79 1.71 1.67 1.69 1.85 1.97 1.95 1.89 1.89 1.96 2.23 2.50 2.52 2.26 1.95 1.90 1.93 1.87 1.87 2.11 2.28 2.28 2.26 2.30
2.06 2.01 1.94 1.90 1.81 1.78 1.83 1.83 1.75 1.75 1.82 1.85 1.85 1.87 1.97 2.02 2.03 2.00 2.01 2.13 2.14 2.08 2.01 2.09 2.28 2.47 2.44 2.12 1.82 1.69 1.86 2.02 2.17 2.27 2.39 2.37 2.24 2.22
1.87 1.90 1.88 1.89 1.91 1.92 1.92 1.91 1.87 1.87 1.88 1.91 1.99 2.05 2.16 2.24 2.30 2.26 2.20 2.18 2.21 2.24 2.25 2.24 2.25 2.33 2.43 2.35 2.17 2.02 1.96 2.09 2.28 2.36 2.34 2.34 2.28 2.30
1.83 1.82 1.80 1.81 1.86 1.89 1.90 1.91 1.92 1.97 2.02 2.11 2.15 2.21 2.29 2.33 2.28 2.24 2.22 2.29 2.32 2.38 2.31 2.10 2.07 2.29 2.49 2.71 2.49 2.12 2.03 2.08 2.16 2.22 2.29 2.41 2.39 2.35
1.81 1.77 1.77 1.79 1.86 1.94 1.98 1.99 2.03 2.08 2.16 2.26 2.27 2.29 2.35 2.34 2.26 2.25 2.32 2.37 2.33 2.32 2.32 2.26 2.37 2.51 2.60 2.63 2.39 2.19 2.20 2.23 2.24 2.26 2.26 2.20 2.16 2.09
1.85 1.80 1.77 1.71 1.71 1.79 1.85 1.89 1.94 2.02 2.06 2.14 2.22 2.28 2.34 2.34 2.29 2.33 2.41 2.50 2.55 2.56 2.64 2.66 2.65 2.63 2.52 2.45 2.40 2.29 2.24 2.37 2.44 2.41 2.30 2.14 1.84 1.57